Tracking 19226 objects as of 23-Jul-2018
HD Live streaming from Space Station
objects crossing your sky now

FENGYUN 1C DEB

Track FENGYUN 1C DEB now!
10-day predictions


NORAD ID: 31516
Int'l Code: 1999-025BXF
Perigee: 715.5 km
Apogee: 945.7 km
Inclination: 98.8 °
Period: 101.4 minutes
Semi major axis: 7201 km
RCS: 0.0097 m2 (small)
Launch date: May 10, 1999
Source: People's Republic of China (PRC)
Launch site: Taiyaun Space Center, China (TSC)

Note: This is SATELLITE DEBRIS
aabbcc
Your satellite tracking list
Your tracking list is empty




NASA's NSSDC Master Catalog

Two Line Element Set (TLE):
1 31516U 99025BXF 18203.19698341 +.00000066 +00000-0 +44989-4 0  9996
2 31516 098.7838 293.1483 0159811 109.2780 283.5407 14.20555316581154
Source of the keplerian elements: AFSPC